Weather History for Worland, WY

Change the Weather History Date:

Tuesday, February 5, 2013

  Actual Average Record
Temperature  
Mean Temperature 24 °F 20 °F  
Max Temperature 39 °F 34 °F 57 °F (1963)
Min Temperature 8 °F 7 °F -33 °F (1982)
Degree Days  
Heating Degree Days 41 45  
Month to date heating degree days 224 227  
Since 1 July heating degree days 4550 5075  
Cooling Degree Days 0 0  
Month to date cooling degree days 0 0  
Year to date cooling degree days 0 0  
Moisture  
Dew Point 15 °F    
Average Humidity 80    
Maximum Humidity 96    
Minimum Humidity 63    
Precipitation  
Precipitation 0.00 in 0.00 in 0.31 in (1987)
Month to date precipitation 0.00 0.03  
Year to date precipitation 0.13 0.26  
Sea Level Pressure  
Sea Level Pressure 30.03 in    
Wind  
Wind Speed 3 mph (SSE)    
Max Wind Speed 7 mph    
Max Gust Speed 8 mph    
Visibility 10 miles    
Events      
T = Trace of Precipitation, MM = Missing Value Source: NWS Daily Summary

Daily Weather History Graph

Daily Weather History Graph

Search for Another Location

Airport:

Trip Planner

Search our weather history database for the weather conditions in past years. The results will help you decide how hot, cold, wet, or windy it might be!

Date:

Astronomy

Feb. 05, 2013 Rise Set
Actual Time 7:24 AM MST 5:28 PM MST
Civil Twilight 6:53 AM MST 5:58 PM MST
Nautical Twilight 6:19 AM MST 6:32 PM MST
Astronomical Twilight 5:45 AM MST 7:06 PM MST
Moon 3:12 AM MST (2/5) 12:44 PM MST (2/5)
Length of Visible Light 11h 04m
Length of Day
10h 04m
Waning Crescent, 26% of the Moon is Illuminated
Feb 5
Waning Crescent
Feb 10
New
Feb 17
First Quarter
Feb 25
Full
Mar 4
Last Quarter

Hourly Weather History & Observations

Time (MST) Temp. Windchill Dew Point Humidity Pressure Visibility Wind Dir Wind Speed Gust Speed Precip Events Conditions
12:53 AM 17.1 °F 11.7 °F 14.0 °F 88% 30.07 in 10.0 mi South 3.5 mph - N/A   Clear
1:53 AM 12.0 °F - 10.0 °F 92% 30.09 in 10.0 mi Calm Calm - N/A   Clear
2:53 AM 10.0 °F 3.6 °F 7.0 °F 87% 30.09 in 10.0 mi West 3.5 mph - N/A   Clear
3:53 AM 14.0 °F 8.2 °F 12.0 °F 92% 30.06 in 10.0 mi SE 3.5 mph - N/A   Clear
4:53 AM 8.1 °F - 5.0 °F 87% 30.10 in 10.0 mi Calm Calm - N/A   Clear
5:53 AM 10.9 °F 1.4 °F 8.1 °F 88% 30.12 in 10.0 mi SSW 5.8 mph - N/A   Clear
6:53 AM 14.0 °F 5.1 °F 10.9 °F 88% 30.12 in 10.0 mi SSW 5.8 mph - N/A   Clear
7:53 AM 12.9 °F 3.8 °F 10.0 °F 88% 30.12 in 10.0 mi SE 5.8 mph - N/A   Clear
8:53 AM 12.9 °F 6.9 °F 10.0 °F 88% 30.15 in 10.0 mi SE 3.5 mph - N/A   Overcast
9:53 AM 17.1 °F - 14.0 °F 88% 30.14 in 10.0 mi Calm Calm - N/A   Overcast
10:53 AM 19.0 °F 13.9 °F 16.0 °F 88% 30.12 in 10.0 mi WSW 3.5 mph - N/A   Clear
11:53 AM 26.1 °F - 19.0 °F 75% 30.07 in 10.0 mi Calm Calm - N/A   Clear
12:53 PM 30.0 °F 26.5 °F 19.0 °F 64% 30.01 in 10.0 mi SSE 3.5 mph - N/A   Clear
1:53 PM 32.0 °F 27.5 °F 21.0 °F 64% 29.99 in 10.0 mi NNE 4.6 mph - N/A   Clear
2:53 PM 36.0 °F - 25.0 °F 64% 29.96 in 10.0 mi Calm Calm - N/A   Clear
3:53 PM 35.1 °F - 24.1 °F 64% 29.94 in 10.0 mi Calm Calm - N/A   Clear
4:53 PM 33.1 °F 30.0 °F 24.1 °F 70% 29.94 in 10.0 mi NNE 3.5 mph - N/A   Unknown
5:53 PM 27.0 °F - 21.0 °F 78% 29.95 in 10.0 mi Calm Calm - N/A   Clear
6:53 PM 24.1 °F 18.2 °F 19.0 °F 81% 29.95 in 10.0 mi ENE 4.6 mph - N/A   Clear
8:53 PM 21.9 °F 17.2 °F 19.0 °F 89% 29.95 in 10.0 mi SE 3.5 mph - N/A   Clear
9:53 PM 19.0 °F 12.3 °F 15.1 °F 85% 29.95 in 10.0 mi SSE 4.6 mph - N/A   Clear
10:53 PM 19.9 °F 14.9 °F 17.1 °F 89% 29.91 in 10.0 mi South 3.5 mph - N/A   Clear
11:53 PM 17.1 °F 10.0 °F 15.1 °F 92% 29.91 in 10.0 mi SSE 4.6 mph - N/A   Clear